Location: Mohawk View
(42.7837°N, 73.7885°W)
Time: 08:48:22
(UTC+00:00)

Meteor 1-24 Rocket - Pass Details

Date: 25 October 2021
Orbit: 790 x 927 km, 81.3° (Epoch: 27 November)

Event Time Altitude Azimuth Distance (km) Brightness Sun altitude
Rises 09:01:52 0° 144° (SE) 3,283 7.1 -26.1°
Reaches altitude 10° 09:04:57 10° 125° (SE) 2,370 6.6 -25.5°
Maximum altitude 09:08:22 18° 85° (E) 1,916 6.4 -24.9°
Drops below altitude 10° 09:11:52 10° 44° (NE) 2,422 6.7 -24.3°
Sets 09:15:03 0° 26° (NNE) 3,385 7.3 -23.7°
